Bellingham, WA

6:40 PM PST on February 26, 2017 (GMT -0800)
Bellingham International

Weather History for KBLI - September, 2013

Change the Weather History Date:

Friday, September 6, 2013

  Actual Average Record
Temperature  
Mean Temperature 64 °F 60 °F  
Max Temperature 68 °F 69 °F 84 °F (1986)
Min Temperature 59 °F 50 °F 40 °F (2005)
Degree Days  
Heating Degree Days 1 5  
Month to date heating degree days 10 29  
Cooling Degree Days 0 0  
Month to date cooling degree days 2 0  
Year to date cooling degree days 91 40  
Growing Degree Days 12 (Base 50)    
Moisture  
Dew Point 60 °F    
Average Humidity 89    
Maximum Humidity 97    
Minimum Humidity 81    
Precipitation  
Precipitation 0.17 in 0.05 in 0.57 in (2015)
Month to date precipitation 0.69 0.33  
Year to date precipitation 16.77 20.68  
Sea Level Pressure  
Sea Level Pressure 30.02 in    
Wind  
Wind Speed 2 mph (SSE)    
Max Wind Speed 12 mph    
Max Gust Speed 17 mph    
Visibility 8 miles    
Events Rain    
T = Trace of Precipitation, MM = Missing Value Source: NWS Daily Summary

Daily Weather History Graph

Daily Weather History Graph

Search for Another Location

Airport or City:

Trip Planner

Search our weather history database for the weather conditions in past years. The results will help you decide how hot, cold, wet, or windy it might be!

Date:

Astronomy

Sep. 06, 2013 Rise Set
Actual Time 6:34 AM PDT 7:41 PM PDT
Civil Twilight 6:02 AM PDT 8:13 PM PDT
Nautical Twilight 5:23 AM PDT 8:52 PM PDT
Astronomical Twilight 4:41 AM PDT 9:33 PM PDT
Moon 8:03 AM PDT (9/6) 7:54 PM PDT (9/6)
Length of Visible Light 14h 11m
Length of Day
13h 06m
New Moon, 2% of the Moon is Illuminated
Sep 6
New Moon
Sep 12
First Quarter
Sep 19
Full
Sep 26
Last Quarter
Oct 4
New

Hourly Weather History & Observations

Time (PDT) Temp. Dew Point Humidity Pressure Visibility Wind Dir Wind Speed Gust Speed Precip Events Conditions
12:53 AM 61.0 °F 59.0 °F 93% 29.95 in 10.0 mi SSE 9.2 mph - N/A   Partly Cloudy
1:04 AM 60.8 °F 59.0 °F 94% 29.94 in 10.0 mi South 6.9 mph - N/A   Scattered Clouds
1:39 AM 62.6 °F 59.0 °F 88% 29.96 in 10.0 mi SSE 9.2 mph 17.3 mph 0.00 in Rain Light Rain
1:53 AM 62.1 °F 57.9 °F 86% 29.98 in 10.0 mi SSE 6.9 mph - 0.00 in   Overcast
2:07 AM 62.6 °F 59.0 °F 88% 29.96 in 10.0 mi South 8.1 mph - 0.00 in Rain Light Rain
2:53 AM 61.0 °F 57.9 °F 90% 29.98 in 9.0 mi South 11.5 mph - 0.03 in Rain Light Rain
3:53 AM 61.0 °F 59.0 °F 93% 29.97 in 7.0 mi Calm Calm - 0.02 in Rain Light Rain
4:53 AM 59.0 °F 57.9 °F 96% 29.97 in 4.0 mi North 3.5 mph - 0.01 in   Overcast
5:18 AM 60.8 °F 57.2 °F 88% 29.96 in 5.0 mi Calm Calm - N/A   Mostly Cloudy
5:27 AM 60.8 °F 59.0 °F 94% 29.96 in 5.0 mi Calm Calm - N/A   Mostly Cloudy
5:48 AM 60.8 °F 57.2 °F 88% 29.96 in 5.0 mi Calm Calm - N/A   Mostly Cloudy
5:53 AM 60.1 °F 57.9 °F 93% 29.98 in 4.0 mi Calm Calm - N/A   Mostly Cloudy
6:41 AM 60.8 °F 59.0 °F 94% 29.98 in 5.0 mi SSE 3.5 mph - 0.02 in Rain Light Rain
6:53 AM 60.1 °F 59.0 °F 96% 30.00 in 5.0 mi South 3.5 mph - 0.02 in Rain Light Rain
7:00 AM 60.8 °F 59.0 °F 94% 29.97 in 3.0 mi South 3.5 mph - 0.00 in Rain Light Rain
7:34 AM 60.8 °F 59.0 °F 94% 29.99 in 6.0 mi SSE 3.5 mph - 0.00 in   Overcast
7:53 AM 61.0 °F 59.0 °F 93% 30.02 in 8.0 mi Calm Calm - 0.00 in   Overcast
8:17 AM 60.8 °F 59.0 °F 94% 30.01 in 2.0 mi Calm Calm - 0.01 in Rain Light Rain
8:53 AM 61.0 °F 59.0 °F 93% 30.03 in 2.0 mi South 3.5 mph - 0.06 in Rain Rain
9:12 AM 60.8 °F 59.0 °F 94% 30.01 in 4.0 mi South 4.6 mph - 0.03 in Rain Light Rain
9:53 AM 61.0 °F 60.1 °F 97% 30.04 in 6.0 mi Calm Calm - 0.03 in   Partly Cloudy
10:53 AM 62.1 °F 60.1 °F 93% 30.06 in 10.0 mi Calm Calm - N/A   Partly Cloudy
11:12 AM 62.6 °F 60.8 °F 94% 30.04 in 10.0 mi Calm Calm - N/A   Scattered Clouds
11:53 AM 63.0 °F 60.1 °F 90% 30.06 in 10.0 mi Calm Calm - N/A   Clear
12:07 PM 62.6 °F 60.8 °F 94% 30.03 in 10.0 mi Calm Calm - N/A   Partly Cloudy
12:53 PM 64.0 °F 60.1 °F 87% 30.05 in 10.0 mi Variable 4.6 mph - N/A   Partly Cloudy
12:59 PM 64.4 °F 60.8 °F 88% 30.03 in 10.0 mi South 5.8 mph - N/A   Mostly Cloudy
1:53 PM 64.9 °F 61.0 °F 87% 30.07 in 10.0 mi Variable 4.6 mph - N/A   Mostly Cloudy
2:53 PM 64.9 °F 60.1 °F 84% 30.06 in 10.0 mi Calm Calm - N/A   Mostly Cloudy
3:00 PM 66.2 °F 60.8 °F 83% 30.06 in 10.0 mi SE 4.6 mph - N/A   Clear
3:53 PM 66.0 °F 60.1 °F 81% 30.07 in 10.0 mi Calm Calm - N/A   Scattered Clouds
4:53 PM 64.9 °F 60.1 °F 84% 30.08 in 10.0 mi SSW 3.5 mph - 0.00 in   Overcast
5:53 PM 64.9 °F 61.0 °F 87% 30.07 in 10.0 mi Calm Calm - 0.00 in   Overcast
6:53 PM 64.9 °F 60.1 °F 84% 30.07 in 10.0 mi Calm Calm - N/A   Mostly Cloudy
7:53 PM 64.9 °F 61.0 °F 87% 30.09 in 10.0 mi Calm Calm - N/A   Overcast
8:53 PM 64.0 °F 61.0 °F 90% 30.09 in 10.0 mi SE 4.6 mph - 0.00 in Rain Light Rain
9:53 PM 63.0 °F 61.0 °F 93% 30.09 in 9.0 mi Calm Calm - 0.00 in   Overcast
10:53 PM 63.0 °F 61.0 °F 93% 30.10 in 8.0 mi Calm Calm - 0.00 in   Overcast
11:53 PM 64.0 °F 60.1 °F 87% 30.11 in 10.0 mi SSE 5.8 mph - N/A   Overcast